Weather History for Caldwell, ID

Change the Weather History Date:

Friday, May 24, 2013

  Actual Average (KBOI) Record (KBOI)
Temperature  
Mean Temperature 54 °F 61 °F  
Max Temperature 69 °F 74 °F 97 °F (2001)
Min Temperature 39 °F 49 °F 33 °F (1975)
Degree Days  
Heating Degree Days 11 5  
Month to date heating degree days 193  
Since 1 July heating degree days 5417  
Cooling Degree Days 0 2  
Month to date cooling degree days 27  
Year to date cooling degree days 30  
Growing Degree Days 4 (Base 50)    
Moisture  
Dew Point 30 °F    
Average Humidity 39    
Maximum Humidity 65    
Minimum Humidity 26    
Precipitation  
Precipitation 0.00 in 0.04 in 1.09 in (1962)
Month to date precipitation 1.09  
Year to date precipitation 5.94  
Snow  
Snow 0.00 in 0.00 in 0.00 in (2007)
Month to date snowfall 0.0  
Since 1 July snowfall 19.2  
Snow Depth -    
Sea Level Pressure  
Sea Level Pressure 29.95 in    
Wind  
Wind Speed 7 mph (North)    
Max Wind Speed 17 mph    
Max Gust Speed 20 mph    
Visibility 10 miles    
Events      
T = Trace of Precipitation, MM = Missing Value Source: NWS Daily Summary

Daily Weather History Graph

Daily Weather History Graph

Search for Another Location

Airport:

Trip Planner

Search our weather history database for the weather conditions in past years. The results will help you decide how hot, cold, wet, or windy it might be!

Date:

Astronomy

May. 24, 2013 Rise Set
Actual Time 6:12 AM MDT 9:14 PM MDT
Civil Twilight 5:38 AM MDT 9:48 PM MDT
Nautical Twilight 4:54 AM MDT 10:32 PM MDT
Astronomical Twilight 4:03 AM MDT 11:25 PM MDT
Moon 9:00 PM MDT (5/24) 5:50 AM MDT (5/24)
Length of Visible Light 16h 10m
Length of Day
15h 01m
Full, 100% of the Moon is Illuminated
May 24
Full
May 24
Full
May 31
Last Quarter
Jun 8
New
Jun 16
First Quarter

Hourly Weather History & Observations

Time (MDT) Temp. Windchill Dew Point Humidity Pressure Visibility Wind Dir Wind Speed Gust Speed Precip Events Conditions
12:15 AM 48.2 °F - 28.4 °F 46% 29.94 in 10.0 mi NNW 6.9 mph - N/A   Clear
12:35 AM 48.2 °F - 24.8 °F 40% 29.94 in 10.0 mi North 6.9 mph - N/A   Clear
12:55 AM 46.4 °F 45.2 °F 26.6 °F 46% 29.94 in 10.0 mi East 3.5 mph - N/A   Clear
1:15 AM 48.2 °F - 26.6 °F 43% 29.96 in 10.0 mi WSW 4.6 mph - N/A   Clear
1:35 AM 48.2 °F - 26.6 °F 43% 29.96 in 10.0 mi SW 4.6 mph - N/A   Clear
1:55 AM 46.4 °F 43.5 °F 26.6 °F 46% 29.96 in 10.0 mi SW 5.8 mph - N/A   Clear
2:15 AM 46.4 °F 45.2 °F 26.6 °F 46% 29.96 in 10.0 mi WSW 3.5 mph - N/A   Scattered Clouds
2:35 AM 44.6 °F - 26.6 °F 49% 29.96 in 10.0 mi Calm Calm - N/A   Mostly Cloudy
2:55 AM 48.2 °F - 28.4 °F 46% 29.96 in 10.0 mi Calm Calm - N/A   Partly Cloudy
3:35 AM 42.8 °F - 28.4 °F 57% 29.95 in 10.0 mi Calm Calm - N/A   Clear
3:55 AM 41.0 °F 35.8 °F 26.6 °F 57% 29.96 in 10.0 mi East 8.1 mph - N/A   Partly Cloudy
4:15 AM 39.2 °F 33.6 °F 26.6 °F 61% 29.96 in 10.0 mi ESE 8.1 mph - N/A   Clear
4:35 AM 39.2 °F 35.0 °F 28.4 °F 65% 29.95 in 10.0 mi SE 5.8 mph - N/A   Clear
4:55 AM 41.0 °F 36.4 °F 26.6 °F 57% 29.95 in 10.0 mi SE 6.9 mph - N/A   Clear
5:15 AM 41.0 °F 36.4 °F 26.6 °F 57% 29.96 in 10.0 mi SE 6.9 mph - N/A   Clear
5:35 AM 41.0 °F 37.1 °F 24.8 °F 53% 29.96 in 10.0 mi SE 5.8 mph - N/A   Clear
5:55 AM 39.2 °F 34.2 °F 24.8 °F 56% 29.97 in 10.0 mi ESE 6.9 mph - N/A   Clear
6:15 AM 39.2 °F 35.9 °F 24.8 °F 56% 29.97 in 10.0 mi SE 4.6 mph - N/A   Clear
6:35 AM 39.2 °F 35.9 °F 24.8 °F 56% 29.97 in 10.0 mi ESE 4.6 mph - N/A   Scattered Clouds
6:55 AM 39.2 °F 34.2 °F 24.8 °F 56% 29.98 in 10.0 mi ESE 6.9 mph - N/A   Scattered Clouds
7:15 AM 42.8 °F 38.6 °F 24.8 °F 49% 29.99 in 10.0 mi ESE 6.9 mph - N/A   Scattered Clouds
7:35 AM 44.6 °F 41.4 °F 24.8 °F 46% 29.99 in 10.0 mi SE 5.8 mph - N/A   Overcast
7:55 AM 46.4 °F 41.5 °F 23.0 °F 40% 29.99 in 10.0 mi SE 10.4 mph - N/A   Overcast
8:15 AM 48.2 °F - 23.0 °F 37% 30.00 in 10.0 mi SE 9.2 mph - N/A   Mostly Cloudy
8:35 AM 50.0 °F - 24.8 °F 37% 30.00 in 10.0 mi SE 9.2 mph - N/A   Mostly Cloudy
8:55 AM 51.8 °F - 24.8 °F 35% 30.00 in 10.0 mi SE 6.9 mph - N/A   Mostly Cloudy
9:15 AM 51.8 °F - 24.8 °F 35% 30.01 in 10.0 mi ESE 4.6 mph - N/A   Scattered Clouds
9:35 AM 51.8 °F - 26.6 °F 38% 30.01 in 10.0 mi Calm Calm - N/A   Scattered Clouds
9:55 AM 55.4 °F - 26.6 °F 33% 30.01 in 10.0 mi Calm Calm - N/A   Partly Cloudy
10:15 AM 57.2 °F - 28.4 °F 33% 30.01 in 10.0 mi NE 3.5 mph - N/A   Clear
10:35 AM 57.2 °F - 28.4 °F 33% 30.01 in 10.0 mi North 8.1 mph - N/A   Clear
10:55 AM 59.0 °F - 30.2 °F 34% 30.00 in 10.0 mi North 6.9 mph - N/A   Clear
11:15 AM 60.8 °F - 32.0 °F 34% 30.00 in 10.0 mi NNW 6.9 mph - N/A   Clear
11:35 AM 60.8 °F - 30.2 °F 31% 30.00 in 10.0 mi NE 3.5 mph - N/A   Clear
11:55 AM 60.8 °F - 30.2 °F 31% 30.00 in 10.0 mi North 5.8 mph - N/A   Clear
12:15 PM 60.8 °F - 33.8 °F 36% 30.00 in 10.0 mi North 11.5 mph 16.1 mph N/A   Clear
12:35 PM 62.6 °F - 33.8 °F 34% 29.99 in 10.0 mi NNW 9.2 mph 16.1 mph N/A   Clear
12:55 PM 62.6 °F - 33.8 °F 34% 29.99 in 10.0 mi North 8.1 mph 17.3 mph N/A   Clear
1:15 PM 62.6 °F - 33.8 °F 34% 29.98 in 10.0 mi NW 6.9 mph - N/A   Clear
1:35 PM 64.4 °F - 35.6 °F 34% 29.97 in 10.0 mi North 11.5 mph - N/A   Clear
1:55 PM 64.4 °F - 32.0 °F 30% 29.97 in 10.0 mi NNW 3.5 mph - N/A   Clear
2:15 PM 64.4 °F - 35.6 °F 34% 29.96 in 10.0 mi North 5.8 mph - N/A   Clear
2:35 PM 66.2 °F - 33.8 °F 30% 29.95 in 10.0 mi NNE 9.2 mph - N/A   Clear
2:55 PM 66.2 °F - 32.0 °F 28% 29.95 in 10.0 mi North 9.2 mph - N/A   Clear
3:15 PM 66.2 °F - 32.0 °F 28% 29.94 in 10.0 mi NNW 4.6 mph - N/A   Clear
3:35 PM 66.2 °F - 30.2 °F 26% 29.94 in 10.0 mi North 5.8 mph - N/A   Clear
3:55 PM 68.0 °F - 32.0 °F 26% 29.93 in 10.0 mi North 4.6 mph - N/A   Clear
4:15 PM 69.8 °F - 33.8 °F 27% 29.93 in 10.0 mi NNW 8.1 mph - N/A   Clear
4:35 PM 68.0 °F - 33.8 °F 28% 29.92 in 10.0 mi North 9.2 mph - N/A   Clear
4:55 PM 68.0 °F - 33.8 °F 28% 29.91 in 10.0 mi NNW 10.4 mph 16.1 mph N/A   Clear
5:15 PM 68.0 °F - 33.8 °F 28% 29.91 in 10.0 mi NNW 12.7 mph - N/A   Clear
5:35 PM 69.8 °F - 35.6 °F 28% 29.90 in 10.0 mi NNW 11.5 mph 16.1 mph N/A   Clear
5:55 PM 69.8 °F - 35.6 °F 28% 29.90 in 10.0 mi NNW 13.8 mph 19.6 mph N/A   Clear
6:15 PM 68.0 °F - 33.8 °F 28% 29.90 in 10.0 mi NNW 11.5 mph - N/A   Clear
6:35 PM 68.0 °F - 33.8 °F 28% 29.90 in 10.0 mi North 15.0 mph - N/A   Clear
6:55 PM 66.2 °F - 33.8 °F 30% 29.89 in 10.0 mi North 13.8 mph - N/A   Clear
7:15 PM 66.2 °F - 33.8 °F 30% 29.89 in 10.0 mi North 12.7 mph - N/A   Clear
7:35 PM 66.2 °F - 33.8 °F 30% 29.89 in 10.0 mi North 11.5 mph - N/A   Clear
7:55 PM 66.2 °F - 33.8 °F 30% 29.89 in 10.0 mi North 6.9 mph - N/A   Clear
8:15 PM 64.4 °F - 33.8 °F 32% 29.89 in 10.0 mi North 9.2 mph - N/A   Clear
8:35 PM 62.6 °F - 33.8 °F 34% 29.89 in 10.0 mi NNW 8.1 mph - N/A   Clear
8:55 PM 60.8 °F - 35.6 °F 39% 29.89 in 8.0 mi NNW 8.1 mph - N/A   Clear
9:15 PM 60.8 °F - 33.8 °F 36% 29.89 in 10.0 mi NNW 6.9 mph - N/A   Clear
9:35 PM 59.0 °F - 33.8 °F 39% 29.89 in 10.0 mi NNW 8.1 mph - N/A   Clear
9:55 PM 60.8 °F - 32.0 °F 34% 29.89 in 10.0 mi NW 10.4 mph - N/A   Clear
10:15 PM 59.0 °F - 32.0 °F 36% 29.90 in 10.0 mi NNW 10.4 mph 16.1 mph N/A   Clear
10:35 PM 57.2 °F - 33.8 °F 41% 29.90 in 10.0 mi NNW 13.8 mph - N/A   Clear
10:55 PM 57.2 °F - 33.8 °F 41% 29.91 in 10.0 mi NNW 17.3 mph - N/A   Clear
11:15 PM 57.2 °F - 33.8 °F 41% 29.91 in 10.0 mi NNW 13.8 mph - N/A   Clear
11:35 PM 57.2 °F - 33.8 °F 41% 29.91 in 10.0 mi NNW 15.0 mph - N/A   Clear
11:55 PM 55.4 °F - 33.8 °F 44% 29.92 in 10.0 mi NNW 12.7 mph 17.3 mph N/A   Clear